Location: Mount Cross
(36.6390°N, 79.4878°W)
Time: 01:10:46
(UTC+00:00)

SR - Pass Details

Date: 05 April 2023
Orbit: 580 x 867 km, 66.7° (Epoch: 08 June)

Event Time Altitude Azimuth Distance (km) Brightness Sun altitude
Rises 12:29:27 0° 352° (N) 2,828 ? 17.4°
Reaches altitude 10° 12:32:49 10° 21° (NNE) 1,956 ? 18.1°
Maximum altitude 12:34:56 13° 50° (NE) 1,777 ? 18.5°
Drops below altitude 10° 12:37:05 10° 79° (ENE) 2,010 ? 18.9°
Sets 12:40:38 0° 106° (ESE) 2,978 ? 19.6°
